Location: Monteux
(44.0348°N, 4.9972°E)
Time: 18:08:22
(UTC+00:00)

Cosmos 1666 Rocket - Pass Details

Date: 30 November 2020
Orbit: 604 x 632 km, 82.5° (Epoch: 22 January)

Event Time Altitude Azimuth Distance (km) Brightness Sun altitude
Rises 17:21:04 0° 347° (NNW) 2,908 7.0 -13.6°
Reaches altitude 10° 17:23:19 10° 343° (NNW) 2,002 6.2 -14.0°
Maximum altitude 17:27:39 54° 266° (W) 763 4.4 -14.7°
Drops below altitude 10° 17:31:59 10° 189° (S) 2,001 6.5 -15.5°
Sets 17:34:14 0° 185° (S) 2,907 7.3 -15.9°
